Location: ?????
(31.8092°N, 35.2590°E)
Time: 13:52:51
(UTC+00:00)

ASTRO E2 - Pass Details

Date: 20 June 2021
Orbit: 507 x 513 km, 31.4° (Epoch: 01 August)

Event Time Altitude Azimuth Distance (km) Brightness Sun altitude
Rises 17:33:21 0° 253° (WSW) 2,599 6.9 -9.1°
Reaches altitude 10° 17:35:35 10° 250° (WSW) 1,716 5.8 -9.5°
Maximum altitude 17:39:30 65° 169° (SSE) 562 2.7 -10.2°
Drops below altitude 10° 17:43:26 10° 87° (E) 1,722 4.9 -10.9°
Enters shadow 17:43:35 - 87° (E) 1,781 5.0 -10.9°
